[[{"header":{"parameterUnit":"m.s-1","parameterCategory":1,"la1":30.2991,"la2":30.254,"lo1":-89.0895,"lo2":-89.0444,"dy":0.0017,"dx":0.0017,"nx":28,"ny":28,"refTime":"2023-10-14T21:00:00:Z","depth":0,"parameterNumber":2,"parameterNumberName":"U-component_of_WINDS"},"data":[0,0,0,0,0,0,0,0,0,0,0,0,0,0,0,0,0,0,0,0,0,0,0,0,0,0,0,0,0,0,0,0,0,0,0,0,0,0,0,0,0,0,0,0,0,0,0,0,0,0,0,0,0,0,0,0,0,0,1.6198,1.6197,0,1.6108,1.6106,1.6105,1.6066,1.6067,1.6067,1.6067,1.597,1.5967,1.5965,0,0,0,0,0,0,0,0,0,0,0,0,0,1.6331,1.6329,1.6198,1.6197,1.6195,1.6108,1.6106,1.6105,1.6066,1.6067,1.6067,1.6067,1.5971,1.5968,1.5964,0,0,0,0,0,0,0,0,0,0,0,0,0,1.626,1.6328,1.6198,1.6166,1.6162,1.6108,1.6106,1.6105,1.6066,1.6067,1.6067,1.6067,1.5972,1.5968,1.5964,1.5934,0,0,1.5951,1.595,0,0,0,0,0,0,0,0,1.6264,1.6255,1.6172,1.6168,1.6163,1.6099,1.6118,1.6047,1.6066,1.6103,1.6067,1.6067,1.6012,1.6005,1.5987,1.5929,1.5925,1.5951,1.5949,1.5947,1.5946,0,0,0,0,0,0,0,1.6269,1.6259,1.6162,1.617,1.6165,1.6154,1.6144,1.6104,1.6057,1.6099,1.6096,1.6086,1.601,1.5991,1.5985,1.5924,1.5951,1.5948,1.5945,1.5943,1.5836,1.5835,0,0,0,0,0,0,1.628,1.6264,1.6165,1.6159,1.6216,1.6152,1.6141,1.6119,1.6057,1.6048,1.6086,1.6085,1.5998,1.599,1.5981,1.5941,1.5947,1.5943,1.5941,1.5836,1.5835,1.5835,0,0,0,0,0,0,1.6283,1.6272,1.6168,1.621,1.6196,1.6149,1.6125,1.6117,1.6098,1.6048,1.6038,1.6076,1.5998,1.5987,1.5946,1.5937,1.5941,1.5937,1.5836,1.5836,1.5835,1.5862,0,0,0,0,0,0,1.6287,1.6273,1.6263,1.6211,1.6194,1.6136,1.6125,1.6115,1.6092,1.6089,1.6036,1.6027,1.5997,1.5952,1.5942,1.5932,1.5934,1.5837,1.5836,1.5835,1.5861,1.5862,1.5863,0,0,0,0,0,1.6292,1.6273,1.6262,1.625,1.618,1.6136,1.6126,1.6094,1.6092,1.6079,1.6047,1.6029,1.594,1.5949,1.5936,1.5925,1.5837,1.5836,1.5835,1.5861,1.5862,1.5863,0,0,0,0,0,0,1.6323,1.6265,1.6253,1.6216,1.6182,1.613,1.6113,1.6096,1.606,1.6059,1.6019,1.6007,1.5969,1.5943,1.5953,1.5892,1.5887,1.5884,1.5911,1.5911,1.5912,1.5919,1.5931,0,0,0,0,0,1.6326,1.6297,1.6247,1.6219,1.6203,1.6161,1.6141,1.6119,1.608,1.6065,1.6029,1.5991,1.5955,1.5932,1.5895,1.5858,1.5845,1.5844,1.5844,1.5845,1.5842,1.582,1.5818,1.5832,1.5832,1.5832,0,0,1.6331,1.6296,1.6279,1.6225,1.6195,1.6164,1.6149,1.6116,1.6092,1.6059,1.6019,1.5992,1.5946,1.5907,1.5888,1.5884,1.5836,1.5844,1.5845,1.5842,1.5818,1.5817,1.5816,1.5831,1.5831,1.5832,0,0,1.6324,1.6295,1.6269,1.624,1.6196,1.6168,1.6162,1.6112,1.6093,1.6052,1.6027,1.5997,1.5935,1.5904,1.588,1.5861,1.5843,1.5851,1.5854,1.5832,1.5831,1.5829,1.5822,1.582,1.5848,1.5848,1.5848,0,1.6336,1.6289,1.6257,1.6226,1.6202,1.6173,1.6145,1.6117,1.6063,1.6046,1.6043,1.5965,1.5933,1.5885,1.5881,1.5863,1.5853,1.5856,1.5834,1.5832,1.5831,1.5823,1.582,1.5849,1.5849,1.5849,1.5849,0,1.6305,1.6273,1.6256,1.6206,1.618,1.6151,1.6113,1.609,1.6071,1.6043,1.6001,1.5962,1.5917,1.5904,1.5884,1.5853,1.5852,1.5842,1.5836,1.5831,1.5823,1.582,1.5851,1.5851,1.585,1.585,0,0,1.6314,1.6247,1.6242,1.6218,1.6168,1.6141,1.611,1.6067,1.6048,1.6012,1.5983,1.5932,1.5923,1.5895,1.5872,1.5853,1.5839,1.5845,1.5843,1.5844,1.5802,1.5809,1.5806,1.5827,1.5827,1.5826,1.5805,0,1.63,1.6245,1.6215,1.6171,1.614,1.6111,1.6084,1.6049,1.6022,1.5991,1.5961,1.5925,1.5915,1.5899,1.5879,1.5845,1.583,1.5846,1.5799,1.5798,1.581,1.5802,1.581,1.5792,1.5802,1.5801,1.5801,0,1.6276,1.6241,1.6195,1.6147,1.6133,1.6109,1.6067,1.6038,1.5997,1.5979,1.5949,1.5926,1.589,1.5888,1.5837,1.5849,1.5828,1.5808,1.5807,1.58,1.5798,1.5794,1.5785,1.5783,1.5796,1.5796,1.5797,0,1.6287,1.6228,1.6193,1.6174,1.6117,1.6101,1.6077,1.6036,1.6012,1.5975,1.5959,1.5918,1.5895,1.5863,1.5828,1.583,1.5781,1.5776,1.5763,1.5764,1.5753,1.5754,1.574,1.5742,1.5742,1.5742,1.5742,0,1.6273,1.6246,1.6197,1.6175,1.6143,1.6108,1.6077,1.605,1.6014,1.5985,1.5957,1.5931,1.5887,1.5855,1.5827,1.5789,1.5779,1.5762,1.5755,1.5764,1.5766,1.5749,1.5749,1.5741,1.5741,1.5741,1.5741,0,1.628,1.6246,1.6206,1.6156,1.6143,1.6121,1.6078,1.6054,1.6027,1.599,1.598,1.5935,1.5895,1.5858,1.5805,1.5786,1.5747,1.5739,1.5762,1.5757,1.5747,1.5748,1.572,1.5714,1.5721,1.5721,1.5721,0,1.6273,1.6252,1.62,1.6179,1.6156,1.6123,1.6099,1.6063,1.6038,1.599,1.5972,1.5931,1.5896,1.5833,1.5795,1.5754,1.5743,1.5736,1.5737,1.5746,1.5742,1.5743,1.574,1.5737,1.5737,1.5737,1.5737,0,1.6265,1.6249,1.6216,1.6177,1.6149,1.6116,1.6082,1.6066,1.6024,1.5998,1.5957,1.593,1.5876,1.5834,1.5789,1.5762,1.5742,1.5737,1.5732,1.574,1.5754,1.5746,1.5762,1.5738,1.5738,1.5738,1.5738,1.5738,1.6264,1.6243,1.6203,1.6167,1.6138,1.6107,1.6082,1.6052,1.6018,1.5972,1.5953,1.5911,1.587,1.5807,1.578,1.5746,1.5742,1.5735,1.5732,1.5731,1.5732,1.5761,1.5738,1.5738,1.5738,1.5738,1.5738,0,1.6253,1.6226,1.6193,1.6147,1.6118,1.6104,1.6065,1.6041,1.6006,1.597,1.5936,1.5889,1.5848,1.5808,1.5765,1.5745,1.5735,1.5735,1.5735,1.5729,1.5739,1.5748,1.5744,1.5744,1.5744,1.5744,1.5744,1.5744,1.6244,1.6208,1.6188,1.6136,1.6109,1.6069,1.6048,1.6019,1.599,1.5939,1.5906,1.588,1.5841,1.5795,1.5757,1.5745,1.573,1.5733,1.5719,1.5729,1.5729,1.5728,1.5736,1.573,1.573,1.5712,1.5712,1.5712]},{"header":{"parameterUnit":"m.s-1","parameterCategory":1,"la1":30.2991,"la2":30.254,"lo1":-89.0895,"lo2":-89.0444,"dy":0.0017,"dx":0.0017,"nx":28,"ny":28,"refTime":"2023-10-14T21:00:00:Z","depth":0,"parameterNumber":3,"parameterNumberName":"V-component_of_WINDS"},"data":[0,0,0,0,0,0,0,0,0,0,0,0,0,0,0,0,0,0,0,0,0,0,0,0,0,0,0,0,0,0,0,0,0,0,0,0,0,0,0,0,0,0,0,0,0,0,0,0,0,0,0,0,0,0,0,0,0,0,-6.6658,-6.6661,0,-6.6863,-6.6866,-6.6868,-6.6782,-6.6777,-6.6772,-6.6767,-6.6972,-6.6982,-6.6992,0,0,0,0,0,0,0,0,0,0,0,0,0,-6.6188,-6.6197,-6.6658,-6.6661,-6.6663,-6.6863,-6.6866,-6.6869,-6.6783,-6.6777,-6.6771,-6.6765,-6.6969,-6.6981,-6.6993,0,0,0,0,0,0,0,0,0,0,0,0,0,-6.6393,-6.62,-6.6658,-6.6645,-6.6645,-6.6862,-6.6866,-6.6869,-6.6784,-6.6776,-6.6769,-6.6762,-6.6965,-6.698,-6.6995,-6.7235,0,0,-6.7041,-6.7047,0,0,0,0,0,0,0,0,-6.6381,-6.641,-6.6644,-6.6646,-6.6647,-6.679,-6.6775,-6.6992,-6.6786,-6.6731,-6.6767,-6.6759,-6.6917,-6.6936,-6.699,-6.7245,-6.7254,-6.7042,-6.7051,-6.7058,-6.7062,0,0,0,0,0,0,0,-6.6367,-6.6401,-6.6739,-6.6647,-6.665,-6.6627,-6.6648,-6.6816,-6.6863,-6.6735,-6.673,-6.6755,-6.6917,-6.6976,-6.6994,-6.7257,-6.7042,-6.7055,-6.7064,-6.707,-6.772,-6.7728,0,0,0,0,0,0,-6.6353,-6.6389,-6.6733,-6.6745,-6.6493,-6.6642,-6.6665,-6.6751,-6.6861,-6.6871,-6.6761,-6.6751,-6.6954,-6.6977,-6.7001,-6.7292,-6.7058,-6.7072,-6.708,-6.7712,-6.7722,-6.773,0,0,0,0,0,0,-6.6344,-6.6385,-6.6724,-6.6566,-6.6607,-6.6658,-6.6755,-6.6759,-6.6818,-6.6881,-6.6888,-6.6814,-6.6949,-6.698,-6.7178,-6.7297,-6.7078,-6.7092,-6.7702,-6.7715,-6.7726,-6.7873,0,0,0,0,0,0,-6.633,-6.6382,-6.6475,-6.6569,-6.6616,-6.69,-6.6762,-6.6768,-6.6845,-6.6833,-6.6932,-6.6941,-6.6946,-6.7156,-6.7193,-6.7314,-6.7104,-6.7691,-6.7708,-6.7722,-6.7858,-6.7889,-6.7916,0,0,0,0,0,-6.6314,-6.6506,-6.648,-6.6522,-6.6734,-6.6907,-6.6934,-6.6937,-6.6855,-6.6949,-6.6989,-6.6938,-6.7278,-6.7177,-6.7218,-6.7345,-6.7684,-6.7703,-6.7721,-6.7845,-6.7883,-6.7915,0,0,0,0,0,0,-6.6423,-6.6518,-6.649,-6.6719,-6.6806,-6.6892,-6.701,-6.6976,-6.7087,-6.7071,-6.7068,-6.7091,-6.7296,-6.734,-6.7226,-6.7584,-6.7468,-6.7496,-6.7549,-6.7585,-6.7613,-6.7599,-6.7116,0,0,0,0,0,-6.6474,-6.6608,-6.6683,-6.6878,-6.6923,-6.696,-6.7035,-6.703,-6.7119,-6.7155,-6.7209,-6.7296,-6.7422,-6.7506,-6.7626,-6.7863,-6.7884,-6.7971,-6.7999,-6.8023,-6.8047,-6.8177,-6.8217,-6.7791,-6.7791,-6.7791,0,0,-6.658,-6.6649,-6.6733,-6.6902,-6.6968,-6.7107,-6.6991,-6.7141,-6.7243,-6.7177,-6.7368,-6.7411,-6.7508,-6.7728,-6.7827,-6.7771,-6.8169,-6.8046,-6.8065,-6.8076,-6.82,-6.8241,-6.8277,-6.7804,-6.7802,-6.78,0,0,-6.6844,-6.691,-6.708,-6.715,-6.7253,-6.7276,-6.7317,-6.7409,-6.7436,-6.7628,-6.7582,-6.7702,-6.792,-6.7991,-6.8056,-6.8349,-6.8307,-6.8388,-6.8539,-6.8666,-6.8699,-6.8729,-6.8835,-6.8873,-6.8411,-6.8412,-6.8412,0,-6.6963,-6.7171,-6.7171,-6.7327,-6.7403,-6.735,-6.7523,-6.7589,-6.7726,-6.7779,-6.7714,-6.7988,-6.8049,-6.8285,-6.8357,-6.8411,-6.8457,-6.8377,-6.8695,-6.8725,-6.8752,-6.8853,-6.8893,-6.8421,-6.842,-6.8419,-6.8418,0,-6.7312,-6.7457,-6.7582,-6.7718,-6.7807,-6.797,-6.7994,-6.8084,-6.8072,-6.8101,-6.8298,-6.837,-6.8504,-6.8559,-6.8547,-6.8795,-6.8757,-6.8694,-6.8577,-6.8803,-6.8897,-6.8936,-6.8435,-6.8431,-6.8428,-6.8426,0,0,-6.7651,-6.7786,-6.7832,-6.7894,-6.8004,-6.8116,-6.8276,-6.8409,-6.8487,-6.8583,-6.8717,-6.8903,-6.8846,-6.892,-6.8915,-6.9027,-6.9256,-6.895,-6.8952,-6.9006,-6.9535,-6.9583,-6.9628,-6.9228,-6.9236,-6.9241,-6.9527,0,-6.7926,-6.8209,-6.8215,-6.8474,-6.8608,-6.8561,-6.8701,-6.8783,-6.8815,-6.8932,-6.8966,-6.9099,-6.9013,-6.9057,-6.9165,-6.9206,-6.9363,-6.9185,-6.9353,-6.9359,-6.9333,-6.9677,-6.9728,-6.9994,-6.9564,-6.957,-6.9575,0,-6.8284,-6.8394,-6.8668,-6.876,-6.8816,-6.8942,-6.9065,-6.9178,-6.927,-6.9285,-6.9369,-6.9348,-6.9511,-6.9389,-6.9613,-6.9492,-6.9561,-6.9591,-6.9602,-6.9618,-6.9482,-6.9704,-7.0079,-7.0119,-6.9633,-6.9628,-6.9624,0,-6.8506,-6.8722,-6.8914,-6.8968,-6.908,-6.917,-6.922,-6.9305,-6.9386,-6.9493,-6.9545,-6.9668,-6.9736,-6.9832,-6.9845,-6.9755,-7.0071,-6.9949,-7.0088,-7.0088,-7.0158,-7.0154,-7.055,-7.02,-7.0199,-7.0199,-7.0198,0,-6.8813,-6.8982,-6.9016,-6.9134,-6.9323,-6.9327,-6.9513,-6.9556,-6.9633,-6.9758,-6.9723,-6.9841,-6.985,-6.9971,-6.9981,-7.0166,-7.0196,-7.0213,-7.0214,-7.0218,-7.0216,-7.0264,-7.0246,-7.0209,-7.0207,-7.0205,-7.0203,0,-6.9093,-6.9123,-6.9329,-6.9419,-6.9446,-6.9581,-6.9657,-6.977,-6.9798,-6.9958,-6.9995,-7.0039,-7.018,-7.0202,-7.0367,-7.0374,-7.0596,-7.0577,-7.0566,-7.0564,-7.0702,-7.069,-7.1145,-7.1205,-7.0814,-7.0818,-7.0821,0,-6.9288,-6.9418,-6.9523,-6.9605,-6.9661,-6.9794,-6.9876,-6.9885,-6.9972,-7.0087,-7.0186,-7.0324,-7.0435,-7.0661,-7.0708,-7.0833,-7.0818,-7.0969,-7.0837,-7.0836,-7.0822,-7.0815,-7.0829,-7.0995,-7.0999,-7.1002,-7.1005,0,-6.9631,-6.964,-6.976,-6.9888,-6.9988,-7.0088,-7.0182,-7.0251,-7.0271,-7.037,-7.0515,-7.0601,-7.0771,-7.0908,-7.1033,-7.1083,-7.1049,-7.1046,-7.1086,-7.1091,-7.108,-7.109,-7.0637,-7.1036,-7.1033,-7.1031,-7.1029,-7.1028,-6.9876,-6.999,-7.0082,-7.0219,-7.0291,-7.038,-7.0491,-7.0534,-7.0656,-7.0796,-7.0792,-7.0952,-7.1041,-7.1206,-7.1264,-7.1388,-7.1339,-7.1395,-7.141,-7.1424,-7.1439,-7.1059,-7.1411,-7.141,-7.1409,-7.1408,-7.1408,0,-7.0219,-7.0276,-7.0402,-7.0536,-7.0643,-7.0602,-7.0705,-7.0797,-7.0938,-7.1025,-7.1135,-7.1302,-7.1435,-7.1492,-7.1623,-7.1711,-7.1699,-7.1745,-7.174,-7.1752,-7.1474,-7.1428,-7.1753,-7.1753,-7.1753,-7.1753,-7.1753,-7.1753,-7.041,-7.0602,-7.0621,-7.0848,-7.0903,-7.1061,-7.1123,-7.1205,-7.1274,-7.1463,-7.1574,-7.1611,-7.1686,-7.1822,-7.1942,-7.1955,-7.2006,-7.206,-7.2066,-7.1806,-7.1771,-7.1738,-7.1695,-7.2071,-7.2071,-7.2334,-7.2337,-7.2338]}]]